sat.trackr.live / text

‹ back to catalog

STARLINK-5007

NORAD 57365 · 2023-099AP

PAYLOAD ACTIVE UNKNOWN

§ Identity

Operator
Country
US
Launch date
2023-07-16
Launch site
AFETR
Launch vehicle
Mass (kg)
RCS (m²)

Purposes: comms

External: N2YO · Heavens-Above · Gunter

§ Orbital elements

Epoch: 2026-09-20T05:51:12.629952Z

Period
94.27 min
Inclination
43.0008°
Eccentricity
0.0001300
Mean motion
15.27570048 rev/d
Perigee alt
482.2 km
Apogee alt
484.0 km
Semi-major
6,861.2 km
B*
4.3287e-5
RAAN
222.9490°
Arg perigee
258.9555°
Mean anomaly
101.1151°
Rev number
17,595

§ Raw data

STARLINK-50071 57365U 23099AP  26263.24389618  .00000929  00000+0  43287-4 0  99962 57365  43.0008 222.9490 0001300 258.9555 101.1151 15.27570048175950

JSON: /api/v1/satellites/57365 · /tle

For live sub-satellite position, see the globe view (requires WebGL).

§ Visibility from observer

Set your observer location to see the next 7 days of passes ≥ 10°. The values pass through the URL so the page stays shareable.

No JS? Fill the form by hand. The geolocation button needs JavaScript.